This demonstration page uses our WeatherBlox Daily Observations layout. Learn more.

Left ArrowRight Arrow

38.80484, -77.04692

Hourly Observations for April 2, 2016

Temp ( °F °C ) Dew Point ( °F °C ) Humidity (%) Winds ( mph kmh ) Pressure ( in mb ) Visibility ( mi km ) Precip ( " mm )
12:52 am 00:52 Cloudy 66 18.9 48 8.9 52 52 NNW 8 13 29.65 1004 10 16 0.00 0.00
1:52 am 01:52 Mostly Cloudy 65 18.3 45 7.2 49 49 NNE 12 19 29.64 1004 10 16 0.00 0.00
2:52 am 02:52 Cloudy 64 17.8 43 6.1 46 46 N 6 9 29.64 1004 10 16 0.00 0.00
3:52 am 03:52 Cloudy 62 16.7 44 6.7 52 52 N 8 13 29.63 1003 10 16 0.00 0.00
4:52 am 04:52 Cloudy 61 16.1 40 4.4 46 46 NNW 14 22 29.62 1003 10 16 0.00 0.00
5:52 am 05:52 Mostly Cloudy 58 14.4 39 3.9 50 50 NNW 18 30 29.63 1003 10 16 0.00 0.00
6:23 am 06:23 Cloudy with Light Rain 57 13.9 41 5 55 55 N 13 20 29.62 1003 10 16 0.00 0.03
6:52 am 06:52 Cloudy with Light Rain 54 12.2 41 5 62 62 NNW 20 31 29.63 1004 10 16 0.00 0.03
7:52 am 07:52 Cloudy with Light Rain 50 10 43 6.1 77 77 NNW 16 26 29.67 1005 9 14 0.03 0.76
8:52 am 08:52 Cloudy with Light Rain 50 10 44 6.7 80 80 N 9 15 29.69 1005 10 16 0.01 0.25
9:52 am 09:52 Cloudy with Light Rain 51 10.6 45 7.2 80 80 N 8 13 29.66 1004 10 16 0.01 0.25
10:52 am 10:52 Cloudy with Light Rain 51 10.6 43 6.1 74 74 NNE 3 6 29.65 1004 10 16 0.01 0.25
11:30 am 11:30 Cloudy 52 11.1 44 6.7 75 75 N 5 7 29.62 1003 10 16 0.01 0.25
11:52 am 11:52 Cloudy with Light Rain 53 11.7 45 7.2 74 74 ENE 3 6 29.59 1002 10 16 0.01 0.25
12:52 pm 12:52 Mostly Cloudy 55 12.8 44 6.7 67 67 SSE 6 9 29.56 1001 10 16 0.00 0.03
1:52 pm 13:52 Mostly Cloudy 58 14.4 46 7.8 65 65 S 9 15 29.51 999 10 16 0.00 0.00
2:52 pm 14:52 Mostly Cloudy 58 14.4 46 7.8 65 65 S 13 20 29.47 998 10 16 0.00 0.00
3:52 pm 15:52 Mostly Cloudy 60 15.6 45 7.2 58 58 SSW 12 19 29.44 997 10 16 0.00 0.00
4:52 pm 16:52 Mostly Cloudy 61 16.1 46 7.8 58 58 S 7 11 29.41 996 10 16 0.00 0.00
5:52 pm 17:52 Mostly Cloudy 61 16.1 46 7.8 58 58 S 14 22 29.39 995 10 16 0.00 0.00
6:52 pm 18:52 Mostly Cloudy 58 14.4 48 8.9 70 70 S 15 24 29.40 996 10 16 0.00 0.00
7:52 pm 19:52 Cloudy 57 13.9 49 9.4 74 74 S 14 22 29.40 996 10 16 0.00 0.00
8:52 pm 20:52 Cloudy 56 13.3 49 9.4 77 77 S 10 17 29.41 996 10 16 0.00 0.00
9:10 pm 21:10 Cloudy 59 15 34 1 39 39 SSW 26 43 29.41 996 10 16 0.00 0.00
9:39 pm 21:39 Mostly Cloudy 60 15.6 28 -2.2 30 30 SW 14 22 29.38 995 10 16 0.00 0.03
9:52 pm 21:52 Mostly Cloudy 60 15.6 28 -2.2 30 30 SW 13 20 29.40 996 10 16 0.00 0.03
10:03 pm 22:03 Mostly Cloudy 61 16 27 -3 27 27 WSW 20 31 29.41 996 10 16 0.00 0.00
10:52 pm 22:52 Cloudy with Light Rain 49 9.4 38 3.3 66 66 WNW 30 48 29.51 999 7 11 0.00 0.03
11:52 pm 23:52 Cloudy 45 7.2 33 0.6 63 63 W 18 30 29.55 1001 10 16 0.03 0.76

Powered by AerisWeather